Temperature
5 6 6 6 6 6 5 5 5 6 7 8 9 9 9 7 6 6 6 6 6 6 7 7 7 8 8 8 9 8 8 8 8 9 9 9 9 8 7 6 5 4 4 4
5 6 6 5 6 6 6 7 7 7 7 9 9 9 7 5 4 4 4 5 5 5 6 6 6 7 7 7 7 6 6 6 6 6 6 6 6 5 4 3 3 3 3 3
5 6 6 6 7 7 7 7 7 7 8 9 9 8 5 3 3 3 3 3 4 4 5 5 5 5 5 5 5 5 4 4 3 4 4 4 3 3 2 2 2 2 2 2
6 6 6 8 9 8 8 8 8 8 8 8 8 6 3 2 1 1 2 2 3 3 3 3 3 4 3 3 3 3 2 1 1 2 2 2 2 2 1 1 2 1 1 1
6 6 6 8 9 9 8 8 8 8 8 8 7 5 4 2 1 1 1 1 2 2 2 2 2 2 2 2 1 1 0 -0 0 1 1 1 1 1 1 1 1 1 0 0
6 7 7 9 10 10 9 8 9 8 7 7 6 6 5 2 1 1 0 1 1 1 1 1 1 1 1 0 -0 -0 -0 -0 0 1 1 1 1 1 1 1 0 -0 -1 -1
6 7 7 8 9 9 9 9 10 8 7 6 5 5 3 2 1 1 0 0 0 1 1 0 0 0 0 0 -0 -0 0 0 1 1 1 1 1 0 -0 -0 -1 -1 -1 -1
7 7 7 9 10 9 9 10 8 7 7 6 4 3 3 2 1 1 1 0 0 0 0 0 0 1 1 0 0 1 1 1 1 1 1 0 -0 -0 -1 -1 -1 -1 -1 -2
7 8 9 10 10 10 10 8 7 6 6 5 4 3 3 2 2 2 1 1 1 1 1 1 1 2 2 1 1 1 1 1 0 -0 -0 -1 -1 -1 -1 -1 -1 -2 -2 -2
7 7 8 10 10 10 9 8 7 6 6 5 4 4 3 3 2 2 2 2 3 3 2 2 2 2 2 2 1 1 1 0 -0 -0 -1 -1 -1 -1 -2 -2 -2 -2 -2 -3
7 8 9 9 10 10 9 8 7 6 5 5 4 3 3 3 3 3 3 3 3 3 3 2 2 2 2 1 1 1 0 -0 -1 -1 -1 -1 -2 -2 -2 -2 -2 -2 -3 -4
7 8 9 9 10 10 9 8 7 6 5 4 4 4 3 3 3 3 3 3 3 3 3 2 2 2 1 1 0 0 -0 -1 -1 -1 -1 -2 -2 -2 -2 -2 -3 -3 -4 -5
9 9 9 10 10 9 9 8 7 5 5 4 3 3 3 2 2 2 2 2 3 3 3 2 2 1 0 -0 -0 -0 -0 -0 -1 -1 -1 -2 -2 -2 -3 -4 -5 -5 -6 -7
8 8 9 9 9 9 8 7 6 5 4 3 3 2 2 2 2 2 2 2 2 2 2 1 1 0 -0 -1 -1 -1 -1 -1 -1 -2 -2 -2 -3 -3 -4 -5 -5 -6 -7 -7
7 7 8 8 8 8 7 6 5 4 3 2 2 2 1 1 2 2 2 2 2 2 1 1 0 -0 -1 -1 -1 -1 -1 -2 -2 -2 -3 -3 -4 -4 -5 -5 -6 -7 -7 -8
5 6 7 7 7 7 6 5 4 4 3 3 2 1 1 1 2 2 2 2 2 1 1 0 -0 -1 -1 -2 -2 -2 -2 -2 -3 -3 -3 -4 -4 -5 -6 -6 -7 -8 -8 -9
2 3 5 5 6 6 5 5 5 4 3 3 2 2 1 1 1 2 2 1 1 1 0 -0 -1 -1 -2 -2 -2 -2 -3 -3 -3 -4 -4 -4 -5 -6 -7 -7 -8 -9 -9 -9
1 2 3 3 4 5 5 5 4 4 3 3 2 2 2 2 2 2 2 1 -0 -1 -1 -1 -1 -2 -2 -2 -3 -3 -3 -3 -3 -4 -4 -5 -6 -7 -7 -8 -9 -9 -9 -10
1 2 3 4 5 5 5 5 4 4 3 3 2 2 2 2 3 2 1 0 -0 -1 -1 -2 -2 -2 -2 -3 -3 -3 -3 -3 -4 -4 -5 -6 -7 -8 -8 -9 -9 -10 -10 -10
1 2 3 4 4 5 4 4 4 3 3 3 2 2 2 2 2 2 1 0 -0 -0 -1 -2 -2 -2 -3 -3 -3 -3 -4 -4 -4 -5 -6 -7 -8 -8 -9 -9 -10 -10 -10 -10
1 2 3 3 4 4 4 3 3 3 3 3 3 3 3 3 2 1 1 -0 -1 -1 -2 -2 -2 -3 -3 -3 -3 -4 -4 -4 -5 -6 -7 -8 -8 -9 -9 -10 -10 -10 -10 -10
1 1 2 2 3 3 2 2 2 2 3 2 2 2 2 2 1 1 0 0 -1 -1 -2 -2 -3 -3 -3 -3 -4 -4 -4 -5 -6 -7 -8 -8 -9 -9 -10 -10 -10 -11 -11 -11
1 1 1 1 1 1 1 1 1 2 2 2 3 3 3 3 2 1 1 -0 -1 -1 -2 -2 -3 -3 -3 -3 -4 -4 -5 -6 -7 -7 -8 -9 -9 -10 -10 -10 -10 -11 -11 -10
1 1 1 1 1 1 1 1 0 1 1 1 2 2 2 2 1 1 0 -0 -1 -1 -2 -3 -3 -3 -3 -4 -4 -5 -6 -6 -7 -8 -8 -9 -9 -10 -10 -10 -10 -10 -10 -10
0 0 0 0 -0 -1 -1 -1 -1 -0 -0 0 1 1 1 1 1 1 -0 -1 -1 -2 -2 -3 -3 -3 -4 -4 -5 -5 -6 -7 -7 -8 -8 -9 -9 -10 -10 -10 -10 -10 -10 -10
-1 -1 -1 -1 -1 -1 -2 -2 -1 -1 -1 -0 -0 0 0 0 -0 -0 -1 -1 -2 -2 -3 -3 -3 -4 -4 -5 -5 -6 -6 -7 -8 -8 -9 -9 -9 -9 -9 -9 -10 -9 -9 -9
-1 -2 -2 -2 -2 -2 -3 -3 -2 -2 -2 -1 -0 -0 -0 -0 -1 -1 -1 -1 -2 -2 -3 -3 -4 -4 -4 -5 -5 -6 -7 -7 -8 -8 -8 -9 -9 -9 -9 -9 -9 -9 -9 -9
Wind_Speed
6 6 5 8 9 10 13 11 10 12 16 25 24 21 15 13 14 14 14 12 10 7 5 4 2 2 4 4 4 5 7 8 9 11 13 15 15 15 15 14 15 14 14 12
4 5 7 8 12 13 14 16 18 22 25 22 16 10 9 11 13 14 14 12 9 5 4 3 2 3 5 7 8 10 11 11 11 13 15 16 16 16 16 15 15 14 13 12
4 5 4 7 10 12 8 9 11 15 12 11 15 12 6 9 12 12 12 11 8 6 6 6 7 8 9 10 11 13 13 13 13 15 17 17 18 18 16 15 14 13 11 10
3 4 5 5 3 7 8 10 12 11 12 12 12 4 3 5 9 10 10 9 8 8 8 9 10 11 12 13 14 14 14 14 14 16 18 17 17 16 14 12 11 10 9 8
2 4 7 8 5 5 6 8 8 8 10 9 7 1 1 5 7 7 7 7 7 8 9 10 11 11 14 14 14 15 14 14 14 15 16 16 15 13 11 11 10 8 7 7
3 3 5 5 3 2 2 6 5 6 8 7 5 3 3 5 6 7 7 7 7 8 10 10 10 11 13 13 13 13 13 13 13 13 14 14 13 11 9 9 8 7 6 5
6 5 7 8 5 3 1 5 4 5 6 4 3 2 1 3 4 5 6 7 8 9 9 9 9 10 12 12 11 11 12 12 13 13 13 12 10 8 8 8 7 6 6 4
6 6 8 5 2 4 7 5 4 4 3 4 5 5 4 4 3 4 5 6 7 8 8 8 8 10 12 11 10 10 12 13 12 11 10 9 9 8 7 7 7 6 5 4
8 9 6 3 5 4 2 4 4 3 4 7 7 5 5 4 4 4 5 6 6 8 9 8 8 9 11 9 10 11 12 12 11 10 9 8 8 8 6 6 5 4 4 3
5 8 8 7 5 3 4 4 4 3 5 7 7 7 7 6 6 5 6 6 6 7 9 8 8 9 9 9 9 11 11 10 9 9 8 7 6 6 5 4 4 3 3 2
6 8 7 4 5 5 4 3 1 2 5 8 9 8 7 7 7 7 6 6 6 7 8 9 8 8 8 8 9 11 10 9 8 7 7 6 5 4 4 3 4 3 2 1
7 7 5 6 5 5 5 5 4 4 5 7 8 8 8 7 7 8 8 7 7 8 8 8 8 8 7 7 8 10 9 7 6 5 5 5 4 4 6 4 6 4 2 2
7 7 6 6 3 5 5 5 5 5 7 7 7 8 8 7 7 9 9 8 8 8 8 8 8 8 7 7 7 8 8 7 5 5 4 4 4 4 3 4 6 6 6 6
7 5 4 5 5 5 5 5 6 6 6 7 7 8 9 8 9 10 9 9 9 9 8 8 8 7 6 7 8 8 7 7 6 5 4 4 3 3 2 2 2 3 5 7
9 7 5 2 4 5 6 6 7 6 7 7 8 9 10 10 10 10 9 10 9 9 8 8 8 6 6 7 8 8 6 5 5 4 4 3 3 3 2 2 1 2 3 4
13 8 2 3 6 6 6 7 8 8 8 7 8 9 9 9 10 9 9 10 11 10 8 8 7 6 6 8 8 6 5 8 6 4 3 3 3 2 2 1 1 2 3 4
9 7 4 4 6 8 8 8 9 9 9 9 9 10 11 11 11 10 8 7 7 7 7 8 7 6 7 7 7 5 4 5 7 5 3 3 2 1 0 1 2 3 3 5
9 11 10 10 8 9 10 9 10 10 10 9 11 12 12 13 13 12 10 10 9 7 6 6 7 7 7 6 5 5 4 4 3 3 2 1 1 0 1 2 3 3 3 4
11 10 9 9 8 9 10 11 11 11 11 12 13 12 10 9 10 11 11 12 12 9 6 7 12 8 7 7 7 4 5 4 3 3 2 2 2 1 2 2 3 4 4 4
11 10 8 5 2 5 7 9 11 11 12 13 12 11 11 10 11 11 11 9 7 6 8 9 8 7 6 7 7 4 4 4 3 2 1 1 1 2 2 3 3 4 4 4
12 10 8 5 2 2 6 9 11 12 12 12 13 12 11 11 11 11 10 7 5 8 9 12 7 6 5 6 7 5 4 3 3 2 1 1 2 2 3 3 4 4 5 5
11 9 8 5 3 3 4 6 9 11 11 10 10 10 11 11 10 8 5 6 8 14 9 6 6 7 8 8 4 4 4 3 2 1 0 1 2 3 4 4 4 5 5 5
9 8 7 5 2 1 3 5 7 10 11 11 12 13 13 11 10 9 7 6 8 13 9 6 9 11 10 6 4 4 3 2 1 1 2 2 3 4 4 5 5 5 5 6
8 8 7 5 2 2 3 3 5 6 7 8 8 9 10 9 6 4 5 14 16 14 7 10 13 12 9 4 4 3 2 1 1 2 3 3 3 4 4 5 5 6 6 7
7 6 5 4 2 0 2 3 5 6 7 6 7 8 7 6 6 7 8 10 15 14 7 10 13 11 6 4 3 3 2 2 3 3 3 3 4 5 5 5 6 6 7 7
6 6 5 4 3 2 2 4 4 5 6 7 7 6 6 6 8 9 8 9 11 12 8 5 6 7 4 4 3 2 2 3 3 3 4 4 5 6 6 6 8 7 7 7
6 5 4 3 2 2 3 4 5 6 6 8 7 7 7 8 9 9 10 9 8 8 6 5 5 4 4 3 3 2 3 3 3 4 4 5 5 6 6 8 7 7 6 7
Wind_Direction
246 238 212 217 220 206 208 216 238 260 271 283 293 300 309 320 321 318 318 316 311 305 298 302 317 355 12 12 35 86 105 113 118 119 120 121 121 121 120 121 120 116 112 106
284 266 232 240 237 228 233 238 247 263 276 278 284 302 319 333 331 327 326 327 325 328 352 13 35 61 65 63 64 79 88 93 101 108 110 109 108 107 106 105 105 104 104 106
277 302 320 264 231 208 210 216 223 247 258 288 306 318 336 338 334 330 332 340 353 17 36 50 62 73 77 78 80 84 89 94 99 104 102 102 102 100 99 100 99 98 98 99
282 325 258 247 234 190 216 242 231 245 268 289 300 309 63 357 339 340 347 0 22 43 55 59 66 74 80 84 86 89 92 95 97 99 99 99 99 98 98 99 99 100 102 108
253 283 280 283 240 201 224 272 241 241 271 290 309 220 115 16 1 358 5 25 41 54 66 72 75 82 87 87 90 93 94 95 96 99 101 101 100 99 100 102 101 104 117 134
226 263 259 258 256 174 153 283 248 240 272 291 319 303 322 17 14 18 28 41 55 62 70 75 79 87 90 91 92 93 95 95 94 96 98 99 101 102 104 109 116 121 123 134
227 250 268 256 258 129 239 271 274 247 255 257 228 206 110 57 39 37 45 52 62 70 71 73 81 90 92 92 93 96 96 94 92 92 96 100 102 107 113 112 107 103 102 100
196 219 253 260 204 208 241 281 291 267 218 179 149 127 117 95 72 58 61 64 68 74 70 67 78 91 92 89 92 95 96 95 94 95 99 104 105 100 97 100 99 101 104 89
202 221 242 260 246 259 256 276 280 259 190 154 149 153 138 120 105 89 82 79 77 81 77 68 71 88 95 95 99 99 97 96 95 91 89 93 97 98 91 91 100 106 109 99
246 261 262 259 244 243 242 252 272 242 173 160 157 154 145 133 121 109 98 95 95 93 89 83 81 85 97 104 103 101 98 93 91 91 86 80 83 91 98 105 110 114 109 91
255 276 292 266 231 231 229 219 215 151 160 160 152 154 151 141 133 125 113 105 101 102 102 99 97 95 94 97 102 99 94 92 88 87 91 85 82 94 114 129 134 122 119 120
237 240 235 257 239 207 206 207 187 153 142 151 156 152 143 138 133 129 123 116 111 109 110 106 102 96 90 92 102 108 105 98 97 98 98 99 99 81 76 85 77 82 165 220
256 268 247 253 225 195 196 191 171 159 154 149 147 145 139 135 134 131 128 126 124 119 115 111 106 99 95 97 100 106 113 111 105 102 98 93 87 86 63 35 41 35 18 355
284 275 254 232 219 186 160 142 130 121 130 139 138 137 135 133 136 137 138 135 129 122 116 112 107 100 99 102 102 100 99 104 101 92 92 91 94 99 101 78 20 348 354 354
332 307 262 205 140 138 136 133 133 136 137 136 139 144 145 146 146 142 138 134 127 120 117 114 110 106 103 104 104 103 101 99 98 100 102 105 105 102 90 72 33 331 319 332
316 310 258 184 179 171 163 164 166 167 160 154 152 150 144 138 135 134 136 140 142 140 134 126 122 123 115 110 108 105 112 126 122 117 112 104 94 87 77 42 344 321 315 308
307 296 271 241 216 205 197 189 181 175 168 164 157 145 138 137 136 137 134 128 125 126 129 131 129 124 118 119 119 118 113 123 123 113 108 106 98 85 40 305 300 300 295 306
282 274 266 256 241 221 206 191 179 174 170 160 151 152 154 156 156 150 140 128 118 111 116 124 126 123 123 127 126 126 123 119 119 117 109 102 102 48 324 311 307 306 299 309
313 302 287 261 235 211 198 187 178 168 157 156 162 164 161 155 150 147 143 143 146 147 156 152 142 131 131 141 133 123 124 120 113 108 98 56 60 6 330 314 306 302 302 306
330 328 325 313 252 191 181 169 161 159 159 160 161 158 156 155 152 151 151 154 163 159 154 149 137 133 134 140 132 122 122 121 118 110 92 52 346 323 317 312 308 303 303 303
338 341 347 354 8 120 152 153 158 161 162 165 169 169 162 156 155 155 155 157 159 148 153 153 146 144 142 140 129 122 120 116 113 106 54 336 316 310 306 304 306 308 308 307
339 344 352 2 36 81 122 144 154 158 161 163 158 153 154 158 159 156 154 158 158 160 152 146 149 156 153 139 125 128 124 118 109 92 317 304 301 299 298 299 297 297 293 291
340 343 349 355 13 106 123 144 157 163 167 168 168 169 170 168 167 164 163 156 155 161 153 157 165 158 147 133 130 128 127 128 140 269 284 286 288 290 291 291 287 286 286 287
340 342 343 347 14 103 141 147 146 151 153 155 161 163 160 156 153 147 141 160 165 158 157 166 161 154 144 133 133 136 143 169 238 265 277 284 287 286 282 281 283 283 281 283
332 331 335 342 344 279 165 141 132 138 141 146 148 149 150 149 152 153 149 157 161 154 153 163 158 150 142 140 147 160 185 232 245 251 257 274 278 278 276 275 275 279 281 280
326 326 320 307 287 239 185 166 164 162 157 155 154 151 142 133 137 145 147 148 152 153 147 133 139 144 144 152 165 189 224 269 302 302 280 277 276 276 276 278 279 277 277 276
318 319 319 319 308 249 206 188 179 177 173 170 163 160 154 149 149 151 148 146 145 145 143 141 142 148 157 170 192 222 245 258 267 273 275 273 272 272 275 277 277 278 278 278
Height
1481 1478 1478 1479 1478 1478 1481 1480 1480 1466 1457 1443 1437 1433 1429 1425 1420 1415 1410 1405 1401 1398 1396 1394 1393 1393 1393 1393 1393 1393 1394 1395 1397 1400 1404 1410 1415 1421 1426 1432 1437 1444 1451 1458
1478 1473 1474 1475 1471 1471 1471 1469 1466 1460 1452 1439 1433 1430 1426 1423 1419 1415 1410 1405 1401 1398 1395 1393 1392 1391 1391 1391 1391 1391 1392 1394 1396 1399 1402 1408 1413 1419 1425 1431 1438 1446 1453 1459
1477 1473 1472 1468 1457 1459 1459 1455 1455 1452 1443 1434 1430 1427 1426 1423 1420 1416 1411 1406 1401 1398 1395 1393 1392 1391 1391 1391 1392 1392 1393 1394 1397 1400 1404 1409 1414 1421 1428 1435 1442 1448 1455 1460
1474 1473 1471 1454 1445 1447 1449 1446 1444 1440 1436 1433 1430 1427 1425 1423 1420 1415 1411 1407 1403 1400 1397 1396 1394 1393 1393 1393 1393 1393 1395 1397 1401 1404 1408 1413 1420 1426 1433 1439 1445 1450 1455 1459
1471 1470 1464 1450 1444 1443 1445 1442 1436 1436 1433 1430 1427 1426 1425 1422 1419 1416 1412 1409 1406 1403 1401 1399 1398 1397 1396 1396 1397 1398 1400 1403 1407 1411 1415 1420 1426 1432 1437 1442 1446 1451 1455 1458
1468 1466 1462 1447 1439 1438 1443 1441 1433 1432 1430 1428 1427 1426 1426 1422 1419 1416 1413 1411 1408 1406 1405 1403 1403 1402 1402 1402 1403 1405 1408 1411 1415 1418 1422 1426 1431 1436 1440 1444 1448 1452 1455 1458
1464 1462 1456 1443 1438 1440 1445 1438 1430 1429 1427 1426 1426 1426 1425 1422 1420 1418 1415 1413 1412 1410 1409 1408 1408 1408 1407 1409 1410 1412 1415 1418 1421 1424 1428 1432 1436 1440 1444 1447 1450 1453 1456 1457
1459 1459 1455 1436 1436 1438 1436 1430 1427 1426 1424 1424 1423 1424 1424 1423 1422 1420 1418 1417 1415 1414 1413 1413 1413 1413 1414 1415 1417 1419 1421 1424 1427 1431 1434 1438 1441 1444 1447 1450 1452 1454 1455 1455
1450 1446 1436 1434 1433 1432 1430 1428 1425 1423 1422 1422 1422 1423 1423 1423 1423 1422 1421 1420 1419 1419 1418 1418 1419 1420 1420 1422 1424 1426 1428 1431 1433 1436 1439 1443 1446 1448 1450 1452 1453 1454 1454 1453
1442 1437 1433 1431 1430 1429 1427 1425 1423 1421 1420 1420 1421 1422 1423 1424 1424 1424 1424 1424 1424 1424 1424 1424 1426 1427 1428 1429 1431 1433 1434 1437 1439 1441 1444 1446 1448 1450 1451 1452 1453 1452 1451 1450
1437 1433 1430 1428 1427 1426 1424 1422 1420 1419 1419 1419 1420 1421 1422 1423 1424 1425 1426 1427 1427 1428 1429 1429 1431 1432 1434 1435 1437 1438 1440 1441 1444 1446 1447 1449 1450 1451 1452 1452 1451 1450 1448 1447
1435 1429 1429 1426 1425 1423 1421 1420 1418 1418 1418 1418 1419 1420 1422 1423 1424 1426 1427 1429 1430 1431 1432 1433 1435 1437 1438 1440 1442 1443 1444 1445 1447 1448 1449 1450 1451 1451 1451 1450 1449 1447 1446 1444
1429 1426 1425 1423 1422 1420 1419 1418 1417 1416 1416 1417 1418 1420 1421 1422 1424 1426 1428 1430 1432 1434 1436 1437 1439 1440 1442 1444 1446 1447 1448 1448 1449 1450 1451 1451 1451 1450 1449 1448 1447 1445 1443 1442
1424 1423 1421 1419 1418 1417 1416 1415 1415 1415 1415 1416 1417 1419 1421 1422 1424 1426 1429 1431 1434 1436 1438 1440 1442 1444 1445 1447 1448 1449 1450 1451 1451 1451 1451 1451 1450 1449 1448 1446 1445 1443 1441 1439
1420 1419 1418 1417 1415 1414 1414 1413 1413 1413 1414 1415 1417 1418 1420 1422 1424 1427 1429 1432 1435 1438 1440 1442 1444 1446 1447 1449 1450 1451 1451 1451 1451 1451 1451 1450 1449 1447 1446 1444 1442 1440 1438 1436
1418 1416 1415 1413 1413 1412 1411 1411 1411 1412 1413 1414 1416 1418 1420 1422 1425 1427 1430 1434 1436 1439 1441 1444 1446 1447 1448 1450 1451 1451 1451 1451 1451 1451 1450 1449 1447 1446 1444 1442 1440 1438 1435 1433
1415 1412 1411 1410 1410 1409 1409 1409 1410 1411 1412 1413 1415 1417 1420 1422 1425 1428 1431 1435 1438 1441 1443 1445 1447 1448 1449 1450 1451 1451 1451 1451 1450 1449 1448 1447 1445 1443 1441 1439 1437 1435 1432 1430
1412 1409 1407 1406 1406 1406 1406 1406 1407 1409 1410 1412 1415 1417 1419 1422 1424 1427 1431 1435 1438 1441 1444 1446 1447 1448 1449 1450 1451 1451 1450 1450 1449 1448 1446 1444 1442 1440 1438 1436 1434 1432 1429 1427
1406 1404 1402 1401 1401 1401 1402 1402 1404 1406 1409 1411 1414 1417 1419 1423 1426 1429 1432 1435 1438 1440 1443 1445 1447 1448 1449 1450 1450 1450 1449 1448 1447 1445 1443 1441 1439 1437 1435 1433 1430 1428 1426 1423
1403 1400 1398 1397 1397 1398 1398 1399 1401 1404 1406 1410 1413 1416 1420 1423 1426 1429 1432 1435 1438 1441 1443 1444 1446 1447 1448 1448 1448 1448 1447 1446 1444 1442 1440 1438 1436 1434 1432 1429 1427 1424 1422 1420
1401 1398 1397 1396 1395 1396 1396 1398 1400 1402 1405 1408 1412 1415 1419 1422 1426 1429 1431 1434 1437 1440 1442 1443 1445 1446 1447 1447 1446 1446 1445 1443 1441 1439 1437 1435 1433 1430 1428 1426 1423 1421 1419 1416
1401 1398 1397 1395 1395 1395 1396 1397 1399 1401 1404 1407 1411 1415 1418 1421 1425 1428 1431 1434 1436 1438 1440 1442 1443 1444 1445 1445 1444 1443 1442 1440 1438 1436 1434 1432 1429 1427 1425 1422 1420 1418 1415 1413
1402 1399 1397 1396 1395 1395 1396 1397 1398 1400 1403 1406 1409 1413 1417 1420 1423 1425 1428 1432 1434 1437 1438 1440 1441 1442 1442 1442 1442 1440 1439 1437 1435 1433 1431 1428 1426 1424 1422 1419 1417 1415 1412 1410
1402 1400 1398 1396 1396 1395 1395 1396 1397 1399 1402 1405 1408 1412 1415 1419 1422 1425 1428 1431 1433 1435 1436 1438 1439 1440 1440 1440 1439 1437 1436 1434 1432 1430 1428 1426 1424 1421 1419 1416 1414 1412 1409 1407
1402 1399 1398 1396 1395 1395 1395 1396 1396 1398 1400 1403 1406 1410 1414 1417 1420 1423 1426 1428 1431 1433 1434 1436 1437 1437 1437 1437 1436 1434 1433 1431 1429 1427 1425 1423 1421 1419 1416 1414 1411 1409 1407 1404
1401 1399 1397 1395 1394 1394 1394 1394 1395 1396 1398 1400 1403 1407 1411 1415 1418 1422 1424 1426 1428 1430 1432 1433 1434 1434 1434 1434 1433 1432 1430 1429 1427 1425 1423 1421 1419 1416 1414 1411 1409 1406 1404 1402
1399 1397 1395 1394 1393 1392 1392 1392 1393 1394 1396 1398 1401 1404 1408 1411 1415 1418 1421 1423 1426 1427 1429 1430 1431 1431 1431 1431 1430 1429 1427 1426 1425 1423 1421 1419 1417 1414 1412 1409 1407 1404 1402 1399